Location: Sauerland
(51.1981°N, 7.8053°E)
Time: 15:31:38
(UTC+01:00)

ISS - Pass Details

Date: 22 February 2026
Orbit: 416 x 427 km, 51.6° (Epoch: 5 March)

Event Time Altitude Azimuth Distance (km) Brightness Sun altitude
Exits shadow 05:01:01 42° 90° (E) 609 -2.6 -23.7°
Drops below altitude 10° 05:03:23 10° 80° (E) 1,496 0.1 -23.3°
Sets 05:05:29 0° 78° (ENE) 2,359 1.5 -23.0°
